Hourly Data Report for November 09, 2005

TORONTO CITY
ONTARIO

43°40'00.000" N
79°24'00.000" W
112.50 m
6158355
71508
XTO

Download Data

Hourly Data (November 2005)
Hourly Data Report for November 9, 2005
TIME
LST
Temp Definition
°C
Dew Point Definition
°C
Rel Hum Definition
%
Precip. Amount Definition
mm

Wind Dir Definition
10's deg

Wind Spd Definition
km/h
Visibility Definition
km
Stn Press Definition
kPa
Hmdx Definition


Wind Chill Definition


Weather Definition


00:00 7.1 2.1 70   LegendMM LegendMM   100.68     LegendNANA
01:00 6.5 3.6 82   LegendMM LegendMM   100.60     LegendNANA
02:00 6.0 3.6 85   LegendMM LegendMM   100.42     LegendNANA
03:00 5.9 3.4 84   LegendMM LegendMM   100.39     LegendNANA
04:00 6.0 3.8 86   LegendMM LegendMM   100.34     LegendNANA
05:00 5.9 4.0 88   LegendMM LegendMM   100.14     LegendNANA
06:00 7.1 5.4 89   LegendMM LegendMM   99.99     LegendNANA
07:00 7.1 5.0 86   LegendMM LegendMM   99.87     LegendNANA
08:00 6.6 5.5 93   LegendMM LegendMM   99.63     LegendNANA
09:00 6.6 6.0 96   LegendMM LegendMM   99.39     LegendNANA
10:00 7.1 6.7 97   LegendMM LegendMM   99.15     LegendNANA
11:00 7.8 7.6 99   LegendMM LegendMM   98.97     LegendNANA
12:00 8.5 8.4 99   LegendMM LegendMM   98.73     LegendNANA
13:00 9.8 9.7 99   LegendMM LegendMM   98.46     LegendNANA
14:00 11.2 11.2 100   LegendMM LegendMM   98.31     LegendNANA
15:00 11.7 11.7 100   LegendMM LegendMM   98.21     LegendNANA
16:00 12.8 12.8 100   LegendMM LegendMM   98.07     LegendNANA
17:00 13.4 13.1 98   LegendMM LegendMM   98.27     LegendNANA
18:00 12.0 6.4 69   LegendMM LegendMM   98.48     LegendNANA
19:00 9.9 4.2 68   LegendMM LegendMM   98.65     LegendNANA
20:00 9.4 2.7 63   LegendMM LegendMM   98.79     LegendNANA
21:00 9.0 1.9 61   LegendMM LegendMM   98.81     LegendNANA
22:00 8.9 1.6 60   LegendMM LegendMM   98.85     LegendNANA
23:00 8.7 1.4 60   LegendMM LegendMM   98.86     LegendNANA

Notes on Data Quality.

Legend

  • E = Estimated
  • M = Missing
  • NA = Not Available*
  • [empty] = Indicates an unobserved value
Date modified: